Home > Weather > Medellin > Past weeks

Flag for Colombia Past Weather in Medellin, Colombia — Yesterday and Last 2 Weeks

Now
61 °F

Passing clouds.


Feels Like: 61 °F
Forecast: 63 / 89 °F
Wind: No wind

Location: Rionegro / J. M. Cordova

Current Time: Aug 24, 2016 at 1:58:35 AM

Latest Report: Aug 24, 2016 at 1:00 AM


Visibility: N/A

Pressure: 30.31 "Hg (25.45 "Hg at 1479m altitude)

Humidity: 88%

Dew Point: 57 °F

Location of MedellinLocation

Past Weather in Medellin — Graph

°F

Medellin Temperature Yesterday

Maximum temperature yesterday: 73 °F (at 1:00 PM)
Minimum temperature yesterday: 52 °F (at 2:00 AM)
Average temperature yesterday: 63 °F

High & Low Weather Summary for the Past Weeks

 TemperatureHumidityPressure
High75 °F (Aug 14, 1:00 PM)100% (Aug 10, 1:00 AM)30.37 "Hg (Aug 10, 1:00 AM)
Low50 °F (Aug 22, 4:00 AM)33% (Aug 23, 11:00 AM)30.18 "Hg (Aug 13, 4:00 PM)
Average64 °F75%30.29 "Hg
* Reported Aug 9 12:00 AM — Aug 24 12:00 AM, Medellin, Weather by CustomWeather, © 2016

Note: Actual official high and low records may vary slightly from our data, if they occured in-between our weather recording intervals... More about our weather records

Advertising

Medellin Weather History for the Previous 24 Hours

Scroll right to see more
 ConditionsComfort  
Time TempWeatherWind HumidityBarometerVisibility
12:00 AM
Wed, Aug 24
61 °FPassing clouds.2 mph88%30.33 "HgN/A
11:00 PM
Tue, Aug 23
61 °FPassing clouds.No wind88%30.34 "Hg6 mi
10:00 PM61 °FPassing clouds.2 mph88%30.33 "HgN/A
9:00 PM63 °FPassing clouds.7 mph77%30.32 "HgN/A
8:00 PM63 °FPassing clouds.7 mph73%30.31 "HgN/A
7:00 PM66 °FPassing clouds.9 mph56%30.27 "HgN/A
6:00 PM72 °FPassing clouds.9 mph38%30.25 "HgN/A
5:00 PM73 °FPassing clouds.12 mph33%30.24 "HgN/A
4:00 PM73 °FPassing clouds.12 mph33%30.25 "HgN/A
3:00 PM73 °FPassing clouds.12 mph33%30.27 "HgN/A
2:00 PM73 °FPassing clouds.12 mph33%30.29 "HgN/A
1:00 PM73 °FPassing clouds.14 mph36%30.31 "HgN/A
12:00 PM72 °FPassing clouds.8 mph38%30.33 "HgN/A
11:00 AM72 °FPassing clouds.9 mph33%30.34 "HgN/A
10:00 AM70 °FPassing clouds.12 mph43%30.35 "HgN/A
9:00 AM66 °FPassing clouds.5 mph52%30.35 "HgN/A
8:00 AM59 °FScattered clouds.No wind77%30.37 "HgN/A
7:00 AM54 °FScattered clouds.5 mph82%30.35 "HgN/A
6:00 AM52 °FScattered clouds.No wind88%30.32 "HgN/A
5:00 AM52 °FPassing clouds.No wind88%30.31 "HgN/A
4:00 AM52 °FPassing clouds.No wind88%30.31 "HgN/A
3:00 AM52 °FPassing clouds.No wind94%30.31 "HgN/A
2:00 AM52 °FPassing clouds.No wind94%30.30 "HgN/A
1:00 AM54 °FPassing clouds.No wind88%30.34 "HgN/A
Weather by CustomWeather, © 2016

See weather overviewHow to use our weather pages